Regional Weather Roundup
Issued by NWS Grand Forks, ND

Home | Current Version | Previous Version | Text Only | Print | Product List | Glossary Off
Versions: 1 2 3 4 5 6 7 8 9 10 11 12 13 14 15 16 17 18 19 20 21 22 23 24 25 26 27 28 29 30 31 32 33 34 35 36 37 38 39 40 41 42 43 44 45 46 47 48 49 50

000
ASUS43 KFGF 201010
RWRFGF
PRAIRIE TO PINES  WEATHER ROUNDUP
NATIONAL WEATHER SERVICE EASTERN NORTH DAKOTA/GRAND FORKS ND
500 AM CDT SUN AUG 20 2017

 **SATELLITE DATA USED TO AUGMENT SKY COVER AT AUTOMATED STATIONS**
 *****  WEATHER ACROSS EASTERN NORTH DAKOTA  *****

CITY           SKY/WX    TMP DP  RH WIND       PRES   REMARKS
GRAND FORKS    FAIR      62  53  72 NW10      29.81R
GRAND FRKS AFB FAIR      61  51  69 NW10G20   29.84R
DEVILS LAKE    FAIR      57  50  77 NW10      29.91R
FARGO          FAIR      64  56  75 NW12      29.84R
WAHPETON ARPT  FAIR      63  59  88 NW10      29.84R
$$

 ***** WEATHER ACROSS CENTRAL AND WESTERN NORTH DAKOTA  *****

CITY           SKY/WX    TMP DP  RH WIND       PRES   REMARKS
BISMARCK       FAIR      60  49  66 NW6       29.99R
MINOT          FAIR      57  41  55 W12       29.97R
JAMESTOWN      FAIR      58  52  80 NW6       29.91R
MINOT AFB      FAIR      48  41  76 W6        29.96R
GARRISON         N/A     51  45  79 NW12      29.98R
WILLISTON      FAIR      46  40  79 SW3       30.03R
DICKINSON      FAIR      50  44  80 NW7       30.03R
HETTINGER      FAIR      61  42  49 N13G18    30.03R
$$

 *****  OTHER AIRPORT OBSERVATIONS IN OUR AREA  *****

CITY           SKY/WX    TMP DP  RH WIND       PRES   REMARKS
WALHALLA       FAIR      61  61 100 NW9       29.84R
GRAFTON AIRPOR FAIR      63  54  72 NW13      29.83R
VALLEY CITY AR   N/A     59  57  94 N10       29.90R
CANDO          FAIR      50  50 100 NW8       29.93R
CAVALIER APRT  FAIR      63  48  59 NW13G20   29.82R
GWINNER        SUNNY     64  57  77 N9G16     29.88R
SHEYENNE NWR     N/A     65  56  73 NW8       29.95S
ROLLA          FAIR      55  43  62 NW14      29.92R
 ***** THE ABOVE OBSERVATIONS ARE NON NWS ARE NOT QUALITY
       CONTROLLED AND MAY MIS-REPORT RAIN FOR SNOW...
$$

  *****  WEATHER ACROSS NORTHERN MINNESOTA  *****

CITY           SKY/WX    TMP DP  RH WIND       PRES   REMARKS
FLAG ISLAND    FAIR      66  61  82 SW3       29.69S
WARROAD        FAIR      64  61  88 W8        29.73S
ROSEAU         FAIR      64  59  82 W8        29.75R
HALLOCK        FAIR      63  54  72 NW10      29.79R
THF RVR FALLS  FAIR      63  56  78 NW14      29.79R
BAUDETTE       FAIR      62  60  93 SW5       29.72F
WASKISH        FAIR      64  61  88 S5        29.76R
CROOKSTON      FAIR      61  55  82 NW9       29.80R
STEPHEN NDAWN    N/A     63  54  72 NW12        N/A
GREENBUSH NDAW   N/A     63  55  77 NW7         N/A
$$
  *****  WEATHER ACROSS CENTRAL AND WEST MINNESOTA  *****

CITY           SKY/WX    TMP DP  RH WIND       PRES   REMARKS
FOSSTON        FAIR      61  57  88 SW3       29.81R
BEMIDJI        FAIR      64  61  88 SW7       29.79R
PARK RAPIDS    FAIR      61  59  93 S3        29.81R FOG
ELBOW LAKE     FAIR      63  63  99 SW6       29.85R
WADENA         FAIR      63  63 100 SW3       29.83R
DETROIT LAKES  FAIR      64  63  94 W8        29.83S
MOORHEAD       FAIR      61  57  88 NW7       29.85R
FERGUS FALLS   FAIR      63  63 100 SW7       29.84R
MORRIS MN      FAIR      63  63 100 S6        29.84R FOG
STAPLES        MOCLDY    63  63 100 SW3       29.83R
$$
  *****  WEATHER ELSEWHERE ACROSS MINNESOTA  *****

CITY           SKY/WX    TMP DP  RH WIND       PRES   REMARKS
DULUTH         FAIR      60  60 100 S5        29.86S
INTRNTL FALLS  FAIR      61  58  90 CALM      29.74F
ELY            FAIR      59  57  94 S3        29.83F
CLOQUET        FAIR      59  57  94 S5        29.86S FOG
WHEATON        FAIR      66  63  88 W5        29.87R
BRAINERD       FAIR      63  61  93 S5        29.82F
HIBBING        FOG       50  50 100 CALM      29.82F VSB 1/4
ALEXANDRIA     FAIR      66  64  93 W8        29.86R
SAINT CLOUD    FAIR      62  62 100 SE7       29.85S
MINNEAPOLIS    MOCLDY    67  61  81 SE6       29.87F
$$

  *****  WEATHER ACROSS SOUTH DAKOTA  *****

CITY           SKY/WX    TMP DP  RH WIND       PRES   REMARKS
SIOUX FALLS    FAIR      70  63  78 W3        29.86R
BROOKINGS      FAIR      62  61  96 CALM      29.88R
WATERTOWN      FAIR      63  62  97 W5        29.89R
HURON          FAIR      64  63  96 NW5       29.90R FOG
SISSETON         N/A     69  64  84 W9        29.86R
ABERDEEN       FAIR      65  60  84 N6        29.92R
MITCHELL       FAIR      65  63  93 CALM      29.86R
PIERRE         FAIR      68  55  63 NE17      29.90F
MOBRIDGE       FAIR      64  53  67 S9        29.96R
RAPID CITY     FAIR      61  49  64 N13       30.02R
$$

  *****  SOME WEATHER IN NEARBY STATES *****

CITY           SKY/WX    TMP DP  RH WIND       PRES   REMARKS
GLASGOW MT     FAIR      52  31  44 N3        30.03S
GREAT FALLS MT FAIR      49  37  63 SW9       30.04S
CHEYENNE WY    FAIR      58  34  40 W8        30.11F
SCOTTSBLUFF NE FAIR      59  46  62 N7        29.96R
OMAHA NE       CLOUDY    70  66  87 S13       29.88F
DES MOINES IA  TSTM      70  67  90 W17G32    29.97R FOG
DAVENPORT IA   FAIR      64  60  87 SE6       29.99S
CHICAGO IL     FAIR      64  57  78 S3        30.01R
EAU CLAIRE WI  FAIR      62  60  93 CALM      29.92S
LA CROSSE WI   FAIR      64  61  90 SE6       29.93F
$$

  *****  SOME NATIONAL WEATHER *****

CITY           SKY/WX    TMP DP  RH WIND       PRES   REMARKS
LA GUARDIA NY  FAIR      71  63  75 NW15      29.97R
RALEIGH NC     FAIR      72  71  97 CALM      30.04R
ATLANTA GA     FAIR      77  66  68 NE5       30.06R
NEW ORLEANS LA MOCLDY    78  77  96 CALM      29.98R
OKLAHOMA CITY  FAIR      71  69  93 SE6       29.96R
ALBUQUERQUE NM CLOUDY    70  47  43 SE6       30.15F
SALT LAKE CITY FAIR      74  43  32 S7        29.99R
LOS ANGELES CA CLOUDY    67  61  81 W3        29.92F
BOISE ID       FAIR      60  41  49 CALM      30.01S
SEATTLE WA     FAIR      59  49  69 N10       30.17S
$$

*** WEATHER ACROSS MANITOBA...SASKATCHEWAN AND ONTARIO ***
                ***ONTARIO***

CITY           SKY/WX    TMP DP  RH WIND       PRES   REMARKS
GERALDTON      CLEAR     57  55  94 SW5       29.81R
THUNDER BAY    CLEAR     54  54 100 CALM      29.82S
SIOUX LOOKOUT  CLEAR     63  59  88 S7        29.71F
TORONTO        PTCLDY    61  55  82 W3        30.01R
BIG TROUT LK   MOCLDY    66  57  72 W9        29.58R
PICKLE LAKE    NOT AVBL
DRYDEN         PTCLDY    66  59  77 S12G17    29.71F
KENORA         PTCLDY    68  63  83 SW12      29.70S
$$
                *** MANITOBA***

CITY           SKY/WX    TMP DP  RH WIND       PRES   REMARKS
BRANDON        PTCLDY    45  43  93 W8        29.89R
DAUPHIN        CLEAR     52  46  82 W10       29.85R
ISLAND LAKE    NOT AVBL
PILOT MOUND      N/A     54  46  76 NW10        N/A
THE PAS        CLEAR     54  46  76 SW10      29.72R
THOMPSON       MOCLDY    54  52  94 W7        29.53F
WINNIPEG       PTCLDY    59  55  88 W8        29.79R
LYNN LAKE      CLEAR     50  48  93 MISG      29.57R
CHURCHILL      FOG       52  52 100 E9        29.54F VSB 1/4
GILLAM         TSTM      57  55  94 N22       29.42F
$$
                ***SASKATCHEWAN***

CITY           SKY/WX    TMP DP  RH WIND       PRES   REMARKS
ESTEVAN        PTCLDY    45  37  76 NW9       29.99R
KINDERSLEY     PTCLDY    41  36  81 SW5       29.99S
LLOYDMINSTER   CLOUDY    50  45  81 W12       29.92S
PRINCE ALBERT  CLEAR     50  45  81 W9        29.87S
REGINA         CLEAR     37  34  87 S5        29.99R
YORKTON        CLEAR     48  45  87 W10       29.91S
N. BATTLEFORD  LGT RAIN  50  43  76 W9        29.95R
LA RONGE       PTCLDY    54  46  76 W9        29.74S
SASKATOON      CLEAR     41  39  93 SW8       29.95S
SWIFT CURRENT  CLEAR     43  34  70 SW12      30.03S
$$
NOTE: THESE ARE AUTOMATED STATIONS WITH LIMITED QUALITY CONTROL
      "FAIR" INDICATES FEW OR NO CLOUDS BELOW 12,000 FEET WITH NO
      SIGNIFICANT WEATHER AND/OR OBSTRUCTIONS TO VISIBILITY.
      SKY/WX - SKY CONDITION AND SIGNIFICANT WEATHER.
      TMP - AIR TEMPERATURE.    DP   - DEWPOINT TEMPERATURE.
      RH  - RELATIVE HUMIDITY.  PRES - PRESSURE.
      HX  - HEAT INDEX.         WCI  - WIND CHILL INDEX.
$



USA.gov is the U.S. government's official web portal to all federal, state and local government web resources and services.